Weather History for Scottsdale, AZ

Change the Weather History Date:

Wednesday, December 5, 2012

  Actual Average Record
Temperature  
Mean Temperature 66 °F -  
Max Temperature 79 °F 63 °F 79 °F (2003)
Min Temperature 52 °F 43 °F 35 °F (2005)
Growing Degree Days 16 (Base 50)    
Moisture  
Dew Point 35 °F    
Average Humidity 37    
Maximum Humidity 61    
Minimum Humidity 17    
Precipitation  
Precipitation 0.00 in - - ()
Sea Level Pressure  
Sea Level Pressure 30.00 in    
Wind  
Wind Speed 1 mph (WNW)    
Max Wind Speed 5 mph    
Max Gust Speed -    
Visibility 10 miles    
Events      
Averages and records for this station are not official NWS values.
T = Trace of Precipitation, MM = Missing Value Source: NWS Daily Summary

Daily Weather History Graph

Daily Weather History Graph

Search for Another Location

Airport:

Trip Planner

Search our weather history database for the weather conditions in past years. The results will help you decide how hot, cold, wet, or windy it might be!

Date:

Astronomy

Dec. 05, 2012 Rise Set
Actual Time 7:17 AM MST 5:19 PM MST
Civil Twilight 6:50 AM MST 5:46 PM MST
Nautical Twilight 6:19 AM MST 6:17 PM MST
Astronomical Twilight 5:49 AM MST 6:47 PM MST
Moon 11:57 PM MST (12/5) 11:56 AM MST (12/5)
Length of Visible Light 10h 56m
Length of Day
10h 01m
Waning Gibbous, 59% of the Moon is Illuminated
Dec 5
Waning Gibbous
Dec 6
Last Quarter
Dec 13
New
Dec 19
First Quarter
Dec 28
Full

Hourly Weather History & Observations

Time (MST) Temp. Dew Point Humidity Pressure Visibility Wind Dir Wind Speed Gust Speed Precip Events Conditions
12:53 AM 57.9 °F 41.0 °F 53% 30.09 in 10.0 mi Calm Calm - N/A   Clear
1:53 AM 57.9 °F 39.0 °F 49% 30.08 in 10.0 mi Calm Calm - N/A   Clear
2:53 AM 55.0 °F 39.9 °F 57% 30.08 in 10.0 mi Calm Calm - N/A   Clear
3:53 AM 52.0 °F 39.0 °F 61% 30.07 in 10.0 mi Calm Calm - N/A   Clear
4:53 AM 54.0 °F 36.0 °F 51% 30.06 in 10.0 mi Calm Calm - N/A   Clear
5:53 AM 53.1 °F 37.9 °F 57% 30.06 in 10.0 mi Calm Calm - N/A   Clear
7:53 AM 54.0 °F 37.9 °F 55% 30.08 in 10.0 mi Calm Calm - N/A   Clear
8:53 AM 57.9 °F 37.9 °F 47% 30.08 in 10.0 mi Calm Calm - N/A   Clear
9:53 AM 66.0 °F 36.0 °F 33% 30.09 in 10.0 mi Calm Calm - N/A   Clear
10:53 AM 70.0 °F 36.0 °F 29% 30.07 in 10.0 mi WSW 3.5 mph - N/A   Clear
11:53 AM 73.9 °F 33.1 °F 22% 30.04 in 10.0 mi West 3.5 mph - N/A   Clear
12:53 PM 77.0 °F 34.0 °F 21% 30.00 in 10.0 mi Calm Calm - N/A   Clear
1:53 PM 78.1 °F 32.0 °F 19% 29.96 in 10.0 mi Calm Calm - N/A   Clear
2:53 PM 79.0 °F 32.0 °F 18% 29.93 in 10.0 mi Variable 4.6 mph - N/A   Clear
3:53 PM 79.0 °F 30.9 °F 17% 29.93 in 10.0 mi West 4.6 mph - N/A   Clear
4:53 PM 77.0 °F 32.0 °F 19% 29.93 in 10.0 mi WSW 3.5 mph - N/A   Clear
5:53 PM 73.9 °F 32.0 °F 21% 29.93 in 10.0 mi Calm Calm - N/A   Clear
6:53 PM 66.9 °F 36.0 °F 32% 29.94 in 10.0 mi Calm Calm - N/A   Clear
7:53 PM 64.9 °F 35.1 °F 33% 29.93 in 10.0 mi Calm Calm - N/A   Clear
8:53 PM 64.0 °F 34.0 °F 33% 29.94 in 10.0 mi NNE 3.5 mph - N/A   Clear
9:53 PM 59.0 °F 35.1 °F 41% 29.93 in 10.0 mi Calm Calm - N/A   Clear
10:53 PM 57.0 °F 35.1 °F 44% 29.93 in 10.0 mi Calm Calm - N/A   Clear
11:53 PM 59.0 °F 34.0 °F 39% 29.92 in 10.0 mi NNE 3.5 mph - N/A   Clear